FW6303 Weather Reports


Display with metric or nautical units.
time (UTC)temp
F
wind
direction
speed
MPH
gust
MPH
rain 1hr
in
rain 24hr
in
rain mn
in
humidity
%
barometer
mb
20260507150037 66 53 0.0 1.0 0.00 0.67 0.57 93 1012.3
20260507145027 66 55 0.0 1.0 0.00 0.67 0.57 94 1012.2
20260507144032 65 54 0.0 1.0 0.01 0.67 0.57 95 1012.3
20260507143027 65 169 1.0 2.0 0.04 0.67 0.57 94 1012.6
20260507142031 65 14 2.0 4.0 0.14 0.67 0.57 94 1012.3
20260507141026 65 31 2.0 3.0 0.17 0.67 0.57 94 1011.9
20260507140031 65 69 0.0 1.0 0.17 0.67 0.57 96 1011.8
20260507135023 64 33 1.0 2.0 0.17 0.67 0.57 96 1012.3
20260507134034 64 35 1.0 2.0 0.16 0.66 0.56 95 1012.3
20260507133024 64 38 1.0 2.0 0.13 0.63 0.53 95 1012.2
20260507132055 64 47 0.0 1.0 0.03 0.53 0.40 95 1011.7
20260507131027 64 43 0.0 2.0 0.02 0.50 0.37 95 1011.4
20260507130037 64 35 0.0 2.0 0.03 0.50 0.37 95 1011.6
20260507125027 64 3 3.0 9.0 0.03 0.50 0.37 95 1011.7
20260507124033 64 356 5.0 9.0 0.03 0.50 0.37 94 1011.6
20260507123023 65 357 6.0 11.0 0.03 0.50 0.37 94 1011.6
20260507122035 67 3 4.0 8.0 0.05 0.50 0.37 94 1010.8
20260507121023 68 29 1.0 4.0 0.05 0.48 0.35 95 1010.8
20260507120036 68 314 2.0 4.0 0.04 0.47 0.34 95 1010.2
20260507115027 68 293 2.0 4.0 0.04 0.47 0.34 95 1010.0
20260507114033 68 27 1.0 3.0 0.04 0.47 0.34 95 1009.7
20260507113025 68 252 2.0 8.0 0.04 0.47 0.34 95 1009.5
20260507112033 68 258 2.0 9.0 0.02 0.45 0.32 95 1009.7
20260507111023 68 3 1.0 4.0 0.00 0.43 0.30 95 1009.7
20260507110036 67 330 1.0 4.0 0.00 0.43 0.30 95 1009.5
20260507105024 67 312 0.0 4.0 0.00 0.43 0.30 94 1009.4
20260507104032 67 316 1.0 6.0 0.00 0.43 0.30 94 1009.7
20260507103047 67 338 1.0 4.0 0.03 0.43 0.30 95 1009.8
20260507102031 67 291 2.0 6.0 0.03 0.43 0.30 95 1009.8
20260507101107 67 35 1.0 4.0 0.05 0.43 0.30 96 1010.1
20260507100032 67 47 0.0 1.0 0.05 0.43 0.30 96 1010.2
20260507095026 67 64 0.0 1.0 0.06 0.43 0.30 96 1010.2
20260507094034 67 88 0.0 1.0 0.06 0.43 0.30 95 1010.2
20260507093029 67 269 1.0 2.0 0.04 0.40 0.27 95 1010.5
20260507092043 67 83 0.0 3.0 0.04 0.40 0.27 95 1010.6
20260507091028 67 101 1.0 3.0 0.05 0.38 0.25 95 1010.6
20260507090036 67 354 1.0 2.0 0.05 0.38 0.25 95 1010.6
20260507085026 67 66 0.0 1.0 0.04 0.37 0.24 95 1011.2
20260507084051 67 107 0.0 2.0 0.04 0.37 0.24 95 1010.9
20260507083029 67 96 0.0 1.0 0.03 0.36 0.23 95 1011.1
20260507082021 67 332 1.0 3.0 0.03 0.36 0.22 95 1011.4
20260507081027 67 37 0.0 1.0 0.00 0.33 0.19 95 1011.6
20260507080056 67 48 0.0 3.0 0.00 0.33 0.19 95 1011.5
20260507075027 67 32 0.0 1.0 0.00 0.33 0.19 95 1011.7
20260507074036 67 50 0.0 3.0 0.00 0.33 0.19 95 1011.5
20260507073027 67 0.0 1.0 0.00 0.33 0.19 95 1011.6
20260507072039 67 64 0.0 1.0 0.01 0.33 0.19 95 1011.4
20260507071027 67 0.0 0.0 0.02 0.33 0.19 95 1011.3
20260507070100 67 45 0.0 1.0 0.03 0.33 0.19 95 1011.3
20260507065024 67 46 0.0 1.0 0.04 0.33 0.19 94 1011.4
20260507064017 67 23 0.0 2.0 0.05 0.33 0.19 94 1011.4
20260507063026 67 66 0.0 1.0 0.05 0.33 0.19 94 1011.6
20260507062032 67 0.0 1.0 0.06 0.32 0.18 94 1011.7
20260507061026 68 71 1.0 3.0 0.08 0.31 0.17 94 1012.2
20260507060021 68 0.0 1.0 0.12 0.30 0.16 93 1012.3
20260507055025 68 36 1.0 2.0 0.13 0.29 0.15 93 1012.6
20260507054018 68 48 1.0 3.0 0.13 0.28 0.14 92 1012.6
20260507053055 68 349 1.0 3.0 0.13 0.28 0.14 93 1012.5
20260507052036 68 291 3.0 9.0 0.11 0.26 0.12 93 1013.0
20260507051030 68 4 1.0 6.0 0.09 0.23 0.09 92 1013.1
20260507050021 69 181 2.0 3.0 0.04 0.18 0.04 91 1013.3
20260507045024 69 279 3.0 8.0 0.02 0.16 0.02 90 1013.1
20260507044017 69 311 2.0 8.0 0.01 0.15 0.01 90 1012.7
20260507043027 69 130 0.0 6.0 0.01 0.15 0.01 90 1013.1
20260507042033 69 270 1.0 7.0 0.01 0.15 0.01 89 1013.2
20260507041027 69 277 1.0 4.0 0.00 0.14 0.00 90 1013.4
20260507040021 69 163 1.0 3.0 0.00 0.14 0.14 90 1013.3
20260507035024 69 48 1.0 2.0 0.00 0.14 0.14 90 1013.4
20260507034017 70 25 1.0 6.0 0.00 0.14 0.14 89 1013.4
20260507033028 70 271 3.0 8.0 0.00 0.14 0.14 88 1012.7
20260507032033 70 326 2.0 6.0 0.00 0.14 0.14 88 1012.6
20260507031025 70 284 2.0 8.0 0.02 0.14 0.14 88 1013.2
20260507030021 71 268 3.0 6.0 0.02 0.14 0.14 89 1014.0
20260507025024 70 345 1.0 6.0 0.04 0.14 0.14 90 1013.7
20260507024016 70 304 2.0 4.0 0.08 0.14 0.14 90 1013.3
20260507023028 70 69 0.0 1.0 0.09 0.14 0.14 90 1013.0
20260507022100 71 77 0.0 3.0 0.10 0.14 0.14 89 1013.2
20260507021047 71 299 1.0 2.0 0.09 0.12 0.12 87 1013.0
20260507020020 71 84 0.0 2.0 0.09 0.12 0.12 86 1012.6
20260507015028 73 276 2.0 7.0 0.07 0.10 0.10 82 1013.3
20260507014016 73 56 1.0 2.0 0.03 0.06 0.06 81 1013.0
20260507013024 73 334 1.0 2.0 0.03 0.05 0.05 81 1013.1
20260507012031 74 3 2.0 3.0 0.02 0.04 0.04 78 1013.3
20260507011024 74 260 1.0 4.0 0.01 0.03 0.03 76 1013.3
20260507010039 74 2 1.0 3.0 0.01 0.03 0.03 78 1013.3
20260507005027 73 76 1.0 4.0 0.01 0.03 0.03 82 1013.3
20260507004059 73 70 0.0 2.0 0.01 0.03 0.03 83 1012.9
20260507003025 73 15 1.0 2.0 0.00 0.02 0.02 83 1013.2
20260507002031 73 76 0.0 1.0 0.00 0.02 0.02 84 1013.3
20260507001028 73 92 0.0 1.0 0.00 0.02 0.02 84 1013.0
20260507000018 73 0.0 0.0 0.00 0.02 0.02 84 1013.1
20260506235028 73 74 0.0 1.0 0.00 0.02 0.02 83 1012.8
20260506234036 74 63 1.0 3.0 0.00 0.02 0.02 79 1012.6
20260506233028 75 14 1.0 3.0 0.02 0.02 0.02 77 1012.6
20260506232035 74 342 1.0 4.0 0.02 0.02 0.02 76 1012.6
20260506231024 74 262 3.0 9.0 0.02 0.02 0.02 77 1012.7
20260506230021 73 321 1.0 7.0 0.02 0.02 0.02 84 1012.4
20260506225027 73 50 0.0 1.0 0.02 0.02 0.02 82 1012.3
20260506224020 75 57 1.0 2.0 0.02 0.02 0.02 77 1012.7
20260506223025 77 315 2.0 6.0 0.00 0.00 0.00 71 1012.8
20260506222035 78 274 3.0 9.0 0.00 0.00 0.00 63 1012.9
20260506221028 79 270 2.0 8.0 0.00 0.00 0.00 62 1012.6
20260506220040 80 273 2.0 7.0 0.00 0.00 0.00 61 1012.6
20260506215023 80 295 2.0 7.0 0.00 0.00 0.00 61 1012.4
20260506214041 79 264 4.0 13.0 0.00 0.00 0.00 61 1012.3
20260506213027 79 247 3.0 9.0 0.00 0.00 0.00 61 1012.6
20260506212035 80 267 3.0 10.0 0.00 0.00 0.00 60 1012.6
20260506211047 80 275 4.0 13.0 0.00 0.00 0.00 60 1012.6
20260506210017 81 357 1.0 6.0 0.00 0.00 0.00 59 1012.8
20260506205027 80 319 2.0 13.0 0.00 0.00 0.00 60 1013.0
20260506204020 81 167 2.0 7.0 0.00 0.00 0.00 58 1013.3
20260506203030 79 280 2.0 4.0 0.00 0.00 0.00 60 1013.3
20260506202056 79 290 2.0 8.0 0.00 0.00 0.00 60 1013.8
20260506201025 80 271 3.0 8.0 0.00 0.00 0.00 57 1013.9
20260506200037 81 265 5.0 10.0 0.00 0.00 0.00 56 1014.0
20260506195025 82 267 4.0 13.0 0.00 0.00 0.00 54 1014.1
20260506194036 82 256 4.0 11.0 0.00 0.00 0.00 53 1014.2
20260506193028 82 267 3.0 9.0 0.00 0.00 0.00 53 1014.1
20260506192035 81 263 4.0 9.0 0.00 0.00 0.00 53 1014.6
20260506191025 82 282 4.0 11.0 0.00 0.00 0.00 52 1014.7
20260506190020 81 279 3.0 11.0 0.00 0.00 0.00 53 1014.7
20260506185025 80 265 3.0 8.0 0.00 0.00 0.00 55 1014.9
20260506184022 79 303 3.0 10.0 0.00 0.00 0.00 56 1015.1
20260506183028 79 250 3.0 7.0 0.00 0.00 0.00 57 1015.1
20260506182034 78 288 3.0 9.0 0.00 0.00 0.00 59 1015.2
20260506181024 78 296 3.0 11.0 0.00 0.00 0.00 59 1015.1
20260506180034 78 267 3.0 7.0 0.00 0.00 0.00 59 1015.2
20260506175026 79 268 4.0 11.0 0.00 0.00 0.00 57 1015.0
20260506174101 79 289 3.0 10.0 0.00 0.00 0.00 56 1015.0
20260506173025 81 38 2.0 7.0 0.00 0.00 0.00 54 1014.8
20260506172054 80 237 3.0 9.0 0.00 0.00 0.00 55 1014.7
20260506171028 79 278 3.0 7.0 0.00 0.00 0.00 57 1015.1
20260506170036 79 294 3.0 7.0 0.00 0.00 0.00 57 1015.2
20260506165024 78 274 4.0 13.0 0.00 0.00 0.00 58 1015.2
20260506164036 77 297 3.0 10.0 0.00 0.00 0.00 59 1015.3
20260506163028 77 259 3.0 10.0 0.00 0.00 0.00 60 1015.7
20260506162036 77 218 2.0 6.0 0.00 0.00 0.00 60 1015.8
20260506161027 76 295 2.0 9.0 0.00 0.00 0.00 62 1015.8
20260506160036 76 217 3.0 7.0 0.00 0.00 0.00 61 1016.1
20260506155025 75 261 3.0 10.0 0.00 0.00 0.00 63 1016.2
20260506154057 74 270 3.0 9.0 0.00 0.00 0.00 65 1016.3
20260506153027 73 241 3.0 8.0 0.00 0.00 0.00 67 1016.6
20260506152033 73 269 4.0 13.0 0.00 0.00 0.00 67 1016.6
20260506151045 73 245 3.0 10.0 0.00 0.00 0.00 66 1016.5